TimeCST,TemperatureF,Dew PointF,Humidity,Sea Level PressureIn,VisibilityMPH,Wind Direction,Wind SpeedMPH,Gust SpeedMPH,PrecipitationIn,Events,Conditions,WindDirDegrees,DateUTC
12:15 AM,12.9,6.1,74,29.83,5.0,North,15.0,24.2,N/A,Snow,Light Snow,350,2014-01-15 06:15:00
12:35 AM,12.9,6.4,75,29.83,10.0,NNW,17.3,-,N/A,Snow,Light Snow,340,2014-01-15 06:35:00
12:55 AM,12.7,6.6,77,29.84,7.0,North,15.0,21.9,N/A,Snow,Light Snow,350,2014-01-15 06:55:00
1:15 AM,12.6,6.3,76,29.84,5.0,North,18.4,24.2,N/A,Snow,Light Snow,350,2014-01-15 07:15:00
1:35 AM,12.2,6.4,78,29.84,5.0,North,17.3,-,N/A,Snow,Light Snow,350,2014-01-15 07:35:00
1:55 AM,12.2,6.3,77,29.84,5.0,NNW,12.7,18.4,N/A,Snow,Light Snow,340,2014-01-15 07:55:00
2:15 AM,12.2,6.4,78,29.85,4.0,NNW,11.5,-,N/A,Snow,Light Snow,340,2014-01-15 08:15:00
2:35 AM,12.0,6.6,79,29.86,2.5,North,8.1,-,N/A,Snow,Light Snow,350,2014-01-15 08:35:00
2:55 AM,11.8,5.9,77,29.86,5.0,North,10.4,-,N/A,Snow,Light Snow,360,2014-01-15 08:55:00
3:15 AM,11.5,5.0,75,29.86,10.0,North,12.7,17.3,N/A,Snow,Light Snow,360,2014-01-15 09:15:00
3:35 AM,11.1,5.0,76,29.87,10.0,North,11.5,16.1,N/A,Snow,Light Snow,350,2014-01-15 09:35:00
3:55 AM,10.9,5.7,79,29.87,1.5,NNW,5.8,-,N/A,Snow,Light Snow,340,2014-01-15 09:55:00
4:15 AM,11.1,4.8,76,29.88,10.0,NNW,12.7,16.1,N/A,Snow,Light Snow,330,2014-01-15 10:15:00
4:35 AM,11.1,3.7,72,29.88,10.0,NNW,12.7,17.3,N/A,,Overcast,340,2014-01-15 10:35:00
4:55 AM,10.9,3.7,73,29.88,10.0,North,11.5,-,N/A,,Overcast,350,2014-01-15 10:55:00
5:15 AM,10.8,3.9,74,29.88,10.0,NNW,6.9,-,N/A,,Overcast,340,2014-01-15 11:15:00
5:35 AM,10.8,4.1,75,29.88,10.0,NNW,6.9,-,N/A,Snow,Light Snow,340,2014-01-15 11:35:00
5:55 AM,10.8,5.0,78,29.88,10.0,North,5.8,-,N/A,Snow,Light Snow,350,2014-01-15 11:55:00
6:15 AM,10.8,5.5,79,29.88,7.0,NNW,8.1,-,N/A,Snow,Light Snow,340,2014-01-15 12:15:00
6:35 AM,10.4,5.5,81,29.88,7.0,NNW,5.8,-,N/A,Snow,Light Snow,340,2014-01-15 12:35:00
6:55 AM,10.4,5.5,81,29.89,5.0,NNW,8.1,-,N/A,Snow,Light Snow,340,2014-01-15 12:55:00
7:15 AM,10.4,5.5,81,29.89,7.0,North,9.2,-,N/A,Snow,Light Snow,350,2014-01-15 13:15:00
7:35 AM,10.4,5.4,80,29.88,7.0,North,5.8,-,N/A,Snow,Light Snow,350,2014-01-15 13:35:00
7:55 AM,10.4,5.4,80,29.88,4.0,NNW,4.6,-,N/A,Snow,Light Snow,340,2014-01-15 13:55:00
8:15 AM,10.2,5.0,79,29.88,4.0,Calm,Calm,-,N/A,Snow,Light Snow,0,2014-01-15 14:15:00
8:35 AM,10.4,5.4,80,29.88,4.0,Calm,Calm,-,N/A,Snow,Light Snow,0,2014-01-15 14:35:00
8:55 AM,10.4,5.2,79,29.88,1.8,WNW,11.5,-,N/A,Snow,Light Snow,290,2014-01-15 14:55:00
9:15 AM,10.4,4.8,78,29.89,3.0,WNW,6.9,-,N/A,Snow,Light Snow,290,2014-01-15 15:15:00
9:35 AM,10.2,3.9,76,29.89,3.0,NNW,10.4,-,N/A,Snow,Light Snow,330,2014-01-15 15:35:00
9:55 AM,10.2,3.0,73,29.88,5.0,NW,4.6,-,N/A,Snow,Light Snow,320,2014-01-15 15:55:00
10:15 AM,10.4,3.7,74,29.88,2.0,NW,4.6,-,N/A,Snow,Light Snow,310,2014-01-15 16:15:00
10:35 AM,10.2,3.0,73,29.88,4.0,WNW,6.9,-,N/A,Snow,Light Snow,290,2014-01-15 16:35:00
10:55 AM,10.2,2.5,71,29.88,7.0,WNW,8.1,-,N/A,,Overcast,290,2014-01-15 16:55:00
11:15 AM,10.4,2.7,71,29.87,4.0,WSW,10.4,-,N/A,Snow,Light Snow,240,2014-01-15 17:15:00
11:35 AM,10.2,2.1,70,29.85,10.0,WSW,5.8,-,N/A,,Overcast,250,2014-01-15 17:35:00
11:55 AM,10.4,2.5,70,29.84,5.0,SW,6.9,-,N/A,Snow,Light Snow,220,2014-01-15 17:55:00
12:15 PM,10.4,2.8,72,29.82,10.0,West,8.1,-,N/A,Snow,Light Snow,270,2014-01-15 18:15:00
12:35 PM,10.6,2.8,71,29.80,10.0,WSW,9.2,-,N/A,,Overcast,240,2014-01-15 18:35:00
12:55 PM,10.2,2.7,72,29.79,10.0,SSW,8.1,-,N/A,,Overcast,200,2014-01-15 18:55:00
1:15 PM,10.4,2.7,71,29.78,10.0,SW,6.9,-,N/A,,Overcast,230,2014-01-15 19:15:00
1:35 PM,10.6,2.8,71,29.78,10.0,SW,6.9,-,N/A,,Overcast,220,2014-01-15 19:35:00
1:55 PM,11.3,3.2,70,29.76,10.0,SSW,6.9,-,N/A,,Overcast,210,2014-01-15 19:55:00
2:15 PM,12.2,3.4,68,29.75,10.0,Calm,Calm,-,N/A,,Overcast,0,2014-01-15 20:15:00
2:35 PM,12.2,3.2,67,29.75,10.0,Calm,Calm,-,N/A,,Overcast,0,2014-01-15 20:35:00
2:55 PM,11.5,3.2,69,29.75,10.0,SSW,9.2,-,N/A,,Overcast,210,2014-01-15 20:55:00
3:15 PM,11.3,3.2,70,29.73,10.0,SSW,6.9,-,N/A,,Overcast,200,2014-01-15 21:15:00
3:35 PM,11.1,3.2,70,29.73,10.0,SSW,6.9,-,N/A,,Mostly Cloudy,200,2014-01-15 21:35:00
3:55 PM,11.1,3.2,70,29.74,10.0,SW,8.1,-,N/A,,Mostly Cloudy,230,2014-01-15 21:55:00
4:15 PM,11.3,3.0,69,29.73,10.0,SW,5.8,-,N/A,,Overcast,220,2014-01-15 22:15:00
4:35 PM,11.1,2.3,68,29.70,10.0,SSW,6.9,-,N/A,,Mostly Cloudy,210,2014-01-15 22:35:00
4:55 PM,10.9,2.3,68,29.69,10.0,South,5.8,-,N/A,,Overcast,190,2014-01-15 22:55:00
5:15 PM,10.0,1.9,70,29.68,10.0,SSW,9.2,17.3,N/A,,Mostly Cloudy,200,2014-01-15 23:15:00
5:35 PM,9.1,1.4,71,29.65,10.0,South,11.5,16.1,N/A,,Mostly Cloudy,180,2014-01-15 23:35:00
5:55 PM,8.1,0.5,71,29.65,10.0,SSW,8.1,-,N/A,,Overcast,200,2014-01-15 23:55:00
6:15 PM,7.2,-0.4,71,29.65,10.0,SSW,11.5,16.1,N/A,,Overcast,200,2014-01-16 00:15:00
6:35 PM,6.6,-0.8,72,29.65,10.0,South,10.4,-,N/A,,Overcast,190,2014-01-16 00:35:00
6:55 PM,5.7,-1.5,72,29.62,10.0,SSW,10.4,-,N/A,,Overcast,200,2014-01-16 00:55:00
7:15 PM,5.5,-1.8,72,29.61,10.0,SSW,9.2,-,N/A,,Overcast,200,2014-01-16 01:15:00
7:35 PM,5.5,-1.7,72,29.60,10.0,South,9.2,-,N/A,,Overcast,190,2014-01-16 01:35:00
7:55 PM,5.5,-1.5,73,29.58,7.0,South,6.9,-,N/A,Snow,Light Snow,190,2014-01-16 01:55:00
8:15 PM,5.4,-0.6,76,29.56,2.5,South,10.4,16.1,N/A,Snow,Light Snow,180,2014-01-16 02:15:00
8:35 PM,5.5,-0.4,77,29.54,4.0,South,9.2,-,N/A,Snow,Light Snow,190,2014-01-16 02:35:00
8:55 PM,5.9,0.1,77,29.51,5.0,South,9.2,-,N/A,Snow,Light Snow,180,2014-01-16 02:55:00
9:15 PM,6.4,0.3,76,29.51,10.0,South,11.5,-,N/A,,Overcast,190,2014-01-16 03:15:00
9:35 PM,6.6,0.7,77,29.50,7.0,South,11.5,16.1,N/A,Snow,Light Snow,190,2014-01-16 03:35:00
9:55 PM,6.8,1.8,80,29.48,4.0,SSW,6.9,17.3,N/A,Snow,Light Snow,200,2014-01-16 03:55:00
10:15 PM,7.2,2.3,80,29.47,2.5,South,6.9,-,N/A,Snow,Light Snow,190,2014-01-16 04:15:00
10:35 PM,7.3,2.8,82,29.46,2.0,South,8.1,-,N/A,Snow,Light Snow,190,2014-01-16 04:35:00
10:55 PM,7.7,3.2,82,29.43,1.5,South,6.9,-,N/A,Snow,Light Snow,190,2014-01-16 04:55:00
11:15 PM,8.1,3.2,81,29.42,1.0,South,8.1,-,N/A,Snow,Light Snow,190,2014-01-16 05:15:00
11:35 PM,8.4,3.7,81,29.40,1.5,South,10.4,-,N/A,Snow,Light Snow,190,2014-01-16 05:35:00
11:55 PM,8.8,4.3,82,29.38,1.2,SSW,8.1,-,N/A,Snow,Light Snow,200,2014-01-16 05:55:00